• en Belgique
  • Liste des pays
  • À 7 jours
  • Température de l'eau
  • Carte satellitaire
  • Carte météo
  • Widgets météo
  • user-avatar
    Se connecter

    Météo par heure à Andenne

    Ce jour, 16 Août, Jeudi

    Heure Température Précipitation Vent Pression Humidité
    00:00 +15°C° 0 mm 1 m/s 753 mmHg 91%
    01:00 +15°C° 0 mm 1 m/s 753 mmHg 91%
    02:00 +15°C° 0 mm 2 m/s 753 mmHg 91%
    03:00 +15°C° 0 mm 2 m/s 753 mmHg 92%
    04:00 +15°C° 0 mm 2 m/s 753 mmHg 90%
    05:00 +16°C° 0 mm 2 m/s 753 mmHg 88%
    06:00 +17°C° 0 mm 2 m/s 752 mmHg 83%
    07:00 +19°C° 0 mm 2 m/s 752 mmHg 75%
    08:00 +21°C° 0 mm 2 m/s 752 mmHg 68%
    09:00 +24°C° 0 mm 2 m/s 752 mmHg 61%
    10:00 +25°C° 0 mm 3 m/s 752 mmHg 57%
    11:00 +27°C° 0 mm 3 m/s 751 mmHg 52%
    12:00 +28°C° 0 mm 3 m/s 751 mmHg 48%
    13:00 +28°C° 0 mm 3 m/s 751 mmHg 47%
    14:00 +29°C° 0 mm 3 m/s 750 mmHg 46%
    15:00 +29°C° 0 mm 3 m/s 750 mmHg 45%
    16:00 +28°C° 0 mm 2 m/s 750 mmHg 51%
    17:00 +26°C° 0 mm 2 m/s 750 mmHg 58%
    18:00 +25°C° 0 mm 2 m/s 750 mmHg 64%
    19:00 +23°C° 0 mm 2 m/s 750 mmHg 71%
    20:00 +21°C° 0 mm 2 m/s 750 mmHg 78%
    21:00 +19°C° 0 mm 2 m/s 750 mmHg 84%
    22:00 +18°C° 0,2 mm 2 m/s 751 mmHg 88%
    23:00 +17°C° 0,2 mm 2 m/s 751 mmHg 91%

    Demain, 17 Août, Vendredi

    Heure Température Précipitation Vent Pression Humidité
    00:00 +17°C° 0,2 mm 2 m/s 751 mmHg 95%
    01:00 +17°C° 0,7 mm 2 m/s 751 mmHg 96%
    02:00 +17°C° 0,7 mm 2 m/s 751 mmHg 96%
    03:00 +18°C° 0,7 mm 1 m/s 751 mmHg 97%
    04:00 +18°C° 1,3 mm 1 m/s 751 mmHg 96%
    05:00 +18°C° 1,3 mm 1 m/s 751 mmHg 96%
    06:00 +18°C° 1,3 mm 1 m/s 752 mmHg 96%
    07:00 +18°C° 0,5 mm 2 m/s 752 mmHg 92%
    08:00 +18°C° 0,5 mm 2 m/s 752 mmHg 89%
    09:00 +19°C° 0,5 mm 2 m/s 753 mmHg 85%
    10:00 +20°C° 0,1 mm 2 m/s 753 mmHg 80%
    11:00 +21°C° 0,1 mm 2 m/s 753 mmHg 74%
    12:00 +21°C° 0,1 mm 2 m/s 753 mmHg 68%
    13:00 +22°C° 0 mm 3 m/s 753 mmHg 64%
    14:00 +22°C° 0 mm 3 m/s 753 mmHg 60%
    15:00 +24°C° 0 mm 3 m/s 753 mmHg 55%
    16:00 +22°C° 0 mm 3 m/s 753 mmHg 59%
    17:00 +21°C° 0 mm 3 m/s 754 mmHg 63%
    18:00 +20°C° 0 mm 2 m/s 754 mmHg 67%
    19:00 +19°C° 0 mm 2 m/s 754 mmHg 71%
    20:00 +17°C° 0 mm 2 m/s 755 mmHg 75%
    21:00 +15°C° 0 mm 1 m/s 755 mmHg 79%
    22:00 +15°C° 0 mm 1 m/s 755 mmHg 81%
    23:00 +14°C° 0 mm 1 m/s 755 mmHg 82%

    Après-demain, 18 Août, Samedi

    Heure Température Précipitation Vent Pression Humidité
    00:00 +14°C° 0 mm 1 m/s 756 mmHg 83%
    01:00 +13°C° 0 mm 1 m/s 756 mmHg 85%
    02:00 +13°C° 0 mm 1 m/s 756 mmHg 86%
    03:00 +13°C° 0 mm 1 m/s 756 mmHg 88%
    04:00 +13°C° 0 mm 1 m/s 756 mmHg 87%
    05:00 +14°C° 0 mm 1 m/s 756 mmHg 85%
    06:00 +15°C° 0 mm 1 m/s 756 mmHg 84%
    07:00 +16°C° 0 mm 2 m/s 756 mmHg 77%
    08:00 +18°C° 0 mm 2 m/s 756 mmHg 69%
    09:00 +20°C° 0 mm 2 m/s 757 mmHg 62%
    10:00 +21°C° 0 mm 2 m/s 756 mmHg 58%
    11:00 +23°C° 0 mm 2 m/s 756 mmHg 55%
    12:00 +24°C° 0 mm 3 m/s 756 mmHg 52%
    13:00 +24°C° 0 mm 3 m/s 756 mmHg 54%
    14:00 +24°C° 0 mm 3 m/s 756 mmHg 56%
    15:00 +24°C° 0 mm 3 m/s 755 mmHg 58%
    16:00 +22°C° 0 mm 3 m/s 756 mmHg 64%
    17:00 +23°C° 0 mm 2 m/s 756 mmHg 69%
    18:00 +21°C° 0 mm 2 m/s 756 mmHg 74%
    19:00 +20°C° 0 mm 2 m/s 756 mmHg 79%
    20:00 +19°C° 0 mm 1 m/s 757 mmHg 83%
    21:00 +18°C° 0 mm 1 m/s 757 mmHg 88%
    22:00 +18°C° 0 mm 1 m/s 757 mmHg 89%
    23:00 +16°C° 0 mm 1 m/s 757 mmHg 91%

    19 Août, Dimanche

    Heure Température Précipitation Vent Pression Humidité
    00:00 +16°C° 0 mm 1 m/s 757 mmHg 92%
    01:00 +15°C° 0 mm 1 m/s 757 mmHg 93%
    02:00 +15°C° 0 mm 1 m/s 757 mmHg 94%
    03:00 +15°C° 0 mm 1 m/s 757 mmHg 94%
    04:00 +15°C° 0 mm 1 m/s 757 mmHg 93%
    05:00 +16°C° 0 mm 1 m/s 757 mmHg 91%
    06:00 +16°C° 0 mm 1 m/s 757 mmHg 89%
    07:00 +19°C° 0 mm 1 m/s 757 mmHg 82%
    08:00 +20°C° 0 mm 2 m/s 757 mmHg 74%
    09:00 +23°C° 0 mm 2 m/s 757 mmHg 66%
    10:00 +24°C° 0 mm 2 m/s 756 mmHg 62%
    11:00 +25°C° 0 mm 3 m/s 756 mmHg 57%
    12:00 +27°C° 0 mm 3 m/s 756 mmHg 53%
    13:00 +27°C° 0 mm 3 m/s 756 mmHg 53%
    14:00 +27°C° 0 mm 3 m/s 755 mmHg 52%
    15:00 +27°C° 0 mm 3 m/s 755 mmHg 52%
    16:00 +26°C° 0 mm 3 m/s 755 mmHg 58%
    17:00 +25°C° 0 mm 2 m/s 755 mmHg 64%
    18:00 +24°C° 0 mm 2 m/s 754 mmHg 70%
    19:00 +23°C° 0 mm 2 m/s 755 mmHg 75%
    20:00 +20°C° 0 mm 2 m/s 755 mmHg 80%
    21:00 +19°C° 0 mm 2 m/s 755 mmHg 85%
    22:00 +18°C° 0 mm 2 m/s 755 mmHg 87%
    23:00 +18°C° 0 mm 2 m/s 755 mmHg 88%

    20 Août, Lundi

    Heure Température Précipitation Vent Pression Humidité
    00:00 +17°C° 0 mm 2 m/s 755 mmHg 90%
    01:00 +17°C° 0 mm 2 m/s 755 mmHg 91%
    02:00 +17°C° 0 mm 2 m/s 754 mmHg 92%
    03:00 +16°C° 0 mm 2 m/s 754 mmHg 93%
    04:00 +17°C° 0 mm 2 m/s 754 mmHg 93%
    05:00 +17°C° 0 mm 3 m/s 754 mmHg 92%
    06:00 +18°C° 0 mm 3 m/s 755 mmHg 92%
    07:00 +19°C° 0 mm 3 m/s 755 mmHg 88%
    08:00 +20°C° 0 mm 3 m/s 755 mmHg 85%
    09:00 +21°C° 0 mm 3 m/s 755 mmHg 81%
    10:00 +21°C° 0 mm 3 m/s 755 mmHg 78%
    11:00 +22°C° 0 mm 3 m/s 755 mmHg 74%
    12:00 +24°C° 0 mm 3 m/s 755 mmHg 71%
    13:00 +24°C° 0 mm 3 m/s 755 mmHg 71%
    14:00 +24°C° 0 mm 3 m/s 755 mmHg 71%
    15:00 +24°C° 0 mm 3 m/s 754 mmHg 72%
    16:00 +24°C° 0 mm 2 m/s 754 mmHg 74%
    17:00 +24°C° 0 mm 2 m/s 754 mmHg 77%
    18:00 +23°C° 0 mm 1 m/s 754 mmHg 79%
    19:00 +21°C° 0 mm 2 m/s 754 mmHg 83%
    20:00 +20°C° 0 mm 2 m/s 755 mmHg 86%
    21:00 +19°C° 0 mm 2 m/s 755 mmHg 90%
    22:00 +19°C° 0 mm 2 m/s 755 mmHg 91%
    23:00 +18°C° 0 mm 2 m/s 755 mmHg 92%

    21 Août, Mardi

    Heure Température Précipitation Vent Pression Humidité
    00:00 +18°C° 0 mm 2 m/s 755 mmHg 94%
    01:00 +17°C° 0 mm 2 m/s 754 mmHg 95%
    02:00 +17°C° 0 mm 2 m/s 754 mmHg 95%
    03:00 +17°C° 0 mm 2 m/s 754 mmHg 96%
    04:00 +17°C° 0 mm 2 m/s 754 mmHg 96%
    05:00 +17°C° 0 mm 2 m/s 754 mmHg 95%
    06:00 +18°C° 0 mm 2 m/s 754 mmHg 94%
    07:00 +19°C° 0 mm 2 m/s 754 mmHg 88%
    08:00 +21°C° 0 mm 2 m/s 754 mmHg 83%
    09:00 +23°C° 0 mm 2 m/s 754 mmHg 78%
    10:00 +24°C° 0 mm 3 m/s 754 mmHg 75%
    11:00 +25°C° 0 mm 3 m/s 754 mmHg 72%
    12:00 +26°C° 0 mm 3 m/s 753 mmHg 69%
    13:00 +26°C° 0 mm 3 m/s 753 mmHg 68%
    14:00 +26°C° 0 mm 3 m/s 753 mmHg 67%
    15:00 +26°C° 0 mm 3 m/s 752 mmHg 66%
    16:00 +25°C° 0,1 mm 3 m/s 752 mmHg 70%
    17:00 +24°C° 0,1 mm 3 m/s 752 mmHg 75%
    18:00 +23°C° 0,1 mm 2 m/s 752 mmHg 80%
    19:00 +21°C° 0,1 mm 2 m/s 752 mmHg 83%
    20:00 +20°C° 0,1 mm 2 m/s 752 mmHg 87%
    21:00 +19°C° 0,1 mm 2 m/s 753 mmHg 91%
    22:00 +18°C° 0 mm 2 m/s 753 mmHg 92%
    23:00 +18°C° 0 mm 2 m/s 753 mmHg 92%
    Voir plus